カタログに戻る

FENGYUN 1C DEB

運用中SSO
NORAD 36280·DEBRIS·🇨🇳 China

打ち上げ May 10, 1999 から Taiyuan Satellite Launch Center

Loading…

次のパス (今後24時間)

TLE

経年Source: Space-Track

元期: Sep 10, 2026, 08:08 UTC

1 36280U 99025DXH 26253.33934377  .00000803  00000-0  46704-3 0  9996
2 36280  98.7454 280.1099 0062262  17.4565 355.8108 14.10480605901822

AllMySatでFENGYUN 1C DEBをリアルタイム追跡

Download on the App Store